| time (UTC) | temp F | wind direction | speed MPH | gust MPH | rain 1hr in | rain 24hr in | rain mn in | humidity % | barometer mb |
| 20260506061512 | 71 | 184 | 2.0 | 12.0 | 0.00 | 0.04 | 0.00 | 77 | 1010.8 |
| 20260506044548 | 72 | 144 | 0.0 | 5.0 | 0.00 | 0.04 | 0.04 | 75 | 1011.7 |
| 20260506041523 | 73 | 200 | 0.0 | 10.0 | 0.00 | 0.04 | 0.04 | 74 | 1011.2 |
| 20260506040012 | 73 | 149 | 2.0 | 5.0 | 0.00 | 0.05 | 0.04 | 73 | 1011.1 |
| 20260506034537 | 73 | 150 | 1.0 | 7.0 | 0.00 | 0.05 | 0.04 | 73 | 1011.1 |
| 20260506033020 | 73 | 174 | 0.0 | 4.0 | 0.00 | 0.05 | 0.04 | 74 | 1011.1 |
| 20260506031523 | 72 | 147 | 0.0 | 4.0 | 0.00 | 0.05 | 0.04 | 75 | 1011.3 |
| 20260506030022 | 73 | 131 | 1.0 | 3.0 | 0.00 | 0.05 | 0.04 | 74 | 1010.8 |
| 20260506024517 | 72 | 101 | 0.0 | 2.0 | 0.00 | 0.05 | 0.04 | 74 | 1011.0 |
| 20260506023020 | 73 | 116 | 1.0 | 2.0 | 0.00 | 0.05 | 0.04 | 72 | 1011.2 |
| 20260506021523 | 73 | 134 | 2.0 | 4.0 | 0.00 | 0.05 | 0.04 | 1010.8 | |
| 20260506014520 | 73 | 139 | 1.0 | 3.0 | 0.00 | 0.05 | 0.04 | 71 | 1010.5 |
| 20260506013018 | 73 | 141 | 1.0 | 6.0 | 0.00 | 0.05 | 0.04 | 70 | 1010.6 |
| 20260506001522 | 74 | 99 | 1.0 | 6.0 | 0.01 | 0.05 | 0.04 | 69 | 1010.7 |
| 20260505200021 | 74 | 76 | 1.0 | 6.0 | 0.00 | 0.04 | 0.03 | 63 | 1012.3 |
| 20260505193030 | 74 | 59 | 1.0 | 9.0 | 0.00 | 0.04 | 0.03 | 62 | 1012.3 |
| 20260505190022 | 75 | 181 | 2.0 | 5.0 | 0.01 | 0.04 | 0.03 | 62 | 1012.7 |
| 20260505184523 | 75 | 144 | 2.0 | 6.0 | 0.01 | 0.04 | 0.03 | 60 | 1013.0 |
| 20260505183028 | 75 | 242 | 0.0 | 8.0 | 0.01 | 0.04 | 0.03 | 62 | 1012.9 |
| 20260505180022 | 74 | 250 | 0.0 | 5.0 | 0.00 | 0.03 | 0.02 | 64 | 1013.5 |
| 20260505174532 | 74 | 137 | 1.0 | 7.0 | 0.00 | 0.04 | 0.02 | 61 | 1013.6 |
| 20260505173024 | 73 | 294 | 0.0 | 2.0 | 0.00 | 0.04 | 0.02 | 66 | 1013.9 |
| 20260505171530 | 74 | 55 | 1.0 | 6.0 | 0.00 | 0.04 | 0.02 | 63 | 1014.1 |
| 20260505170024 | 74 | 87 | 1.0 | 6.0 | 0.00 | 0.04 | 0.02 | 65 | 1013.8 |
| 20260505164520 | 73 | 273 | 0.0 | 7.0 | 0.00 | 0.04 | 0.02 | 68 | 1014.0 |
| 20260505163025 | 73 | 273 | 0.0 | 4.0 | 0.00 | 0.04 | 0.02 | 68 | 1014.3 |
| 20260505161510 | 72 | 284 | 0.0 | 2.0 | 0.00 | 0.04 | 0.02 | 67 | 1014.2 |
| 20260505153026 | 71 | 164 | 2.0 | 5.0 | 0.01 | 0.04 | 0.02 | 66 | 1014.4 |
| 20260505151509 | 71 | 261 | 0.0 | 2.0 | 0.01 | 0.04 | 0.02 | 70 | 1014.5 |
| 20260505124517 | 61 | 164 | 0.0 | 2.0 | 0.00 | 0.03 | 0.01 | 81 | 1014.0 |
| 20260505123022 | 60 | 120 | 0.0 | 2.0 | 0.00 | 0.03 | 0.01 | 82 | 1013.8 |
| 20260505121523 | 59 | 153 | 1.0 | 2.0 | 0.00 | 0.03 | 0.01 | 82 | 1013.5 |
| 20260505120029 | 58 | 111 | 1.0 | 2.0 | 0.00 | 0.03 | 0.01 | 84 | 1013.3 |
| 20260505114526 | 58 | 109 | 0.0 | 1.0 | 0.00 | 0.03 | 0.01 | 85 | 1012.9 |
| 20260505113023 | 57 | 108 | 0.0 | 2.0 | 0.01 | 0.03 | 0.01 | 86 | 1012.7 |
| 20260505111536 | 57 | 107 | 0.0 | 1.0 | 0.01 | 0.03 | 0.01 | 86 | 1012.7 |
| 20260505101519 | 57 | 80 | 0.0 | 2.0 | 0.00 | 0.02 | 0.00 | 84 | 1012.8 |
| 20260505100023 | 57 | 75 | 0.0 | 2.0 | 0.00 | 0.02 | 0.00 | 84 | 1012.7 |
| 20260505094528 | 58 | 74 | 0.0 | 2.0 | 0.00 | 0.02 | 0.00 | 84 | 1012.8 |
| 20260505091515 | 58 | 67 | 0.0 | 0.0 | 0.00 | 0.02 | 0.00 | 82 | 1013.2 |
| 20260505090019 | 58 | 67 | 0.0 | 0.0 | 0.00 | 0.02 | 0.00 | 82 | 1013.0 |
| 20260505084525 | 58 | 67 | 0.0 | 0.0 | 0.00 | 0.03 | 0.00 | 81 | 1013.2 |
| 20260505083027 | 59 | 67 | 0.0 | 0.0 | 0.00 | 0.03 | 0.00 | 81 | 1013.1 |
| 20260505081533 | 59 | 67 | 0.0 | 2.0 | 0.00 | 0.03 | 0.00 | 80 | 1013.1 |
| 20260505080029 | 59 | 129 | 0.0 | 2.0 | 0.00 | 0.03 | 0.00 | 79 | 1013.1 |
| 20260505074505 | 60 | 129 | 0.0 | 2.0 | 0.00 | 0.03 | 0.00 | 78 | 1013.5 |
| 20260505073012 | 61 | 129 | 0.0 | 2.0 | 0.00 | 0.03 | 0.00 | 75 | 1013.2 |
| 20260505071512 | 61 | 129 | 0.0 | 0.0 | 0.00 | 0.03 | 0.00 | 76 | 1013.2 |
| 20260505070017 | 61 | 129 | 0.0 | 1.0 | 0.00 | 0.03 | 0.00 | 76 | 1013.2 |